FW0761 Holden Beach NC US current weather conditions

sailwx.info

Wind from 173

Air temperature 26.7° C
Dewpoint 23.7° C

Last reported at 2020-Jul-06 04:00 UTC.
Time now 2020-Jul-06 04:50 UTC

Location: N 33°54' W 078°23'.
View on Google Maps.

See reports from other nearby stations

  
Tides and Currents Weather Stations Pressure Air Temp Water Temp Dewpoint Dewpoint Depression Visibility Wind Speed Wind Dir Waves Ship Positions
date/time (UTC)wind fromknots sea level pressurealtimeterstation pressurevisibilityair tempwater tempwave heightnotes
2020-Jul-06 04:00 173 26.7
2020-Jul-06 03:46 173 26.7
2020-Jul-06 03:15 173 27.2
2020-Jul-06 03:00 173 27.2
2020-Jul-06 02:45 173 27.2
2020-Jul-06 02:31 173 27.2
2020-Jul-06 02:15 173 27.2
2020-Jul-06 02:01 177 27.2
2020-Jul-06 01:47 178 27.2
2020-Jul-06 01:30 178 27.2
2020-Jul-06 01:15 173 27.2
2020-Jul-06 01:00 174 27.2
2020-Jul-06 00:45 174 27.2
2020-Jul-06 00:30 174 27.8
2020-Jul-06 00:16 174 27.8
2020-Jul-06 00:01 175 28.3
2020-Jul-05 23:46 175 28.9
2020-Jul-05 23:31 175 29.4
2020-Jul-05 23:16 175 29.4
2020-Jul-05 23:00 175 30.0
2020-Jul-05 22:45 175 30.0
2020-Jul-05 22:31 175 30.0
2020-Jul-05 22:15 175 31.1
2020-Jul-05 22:00 176 31.7
2020-Jul-05 21:45 159 31.7
2020-Jul-05 21:30 159 31.7
2020-Jul-05 21:15 157 32.2
2020-Jul-05 21:00 160 32.2
2020-Jul-05 20:30 162 32.8
2020-Jul-05 20:16 162 33.3
2020-Jul-05 20:01 164 33.3
2020-Jul-05 19:46 165 33.3
2020-Jul-05 19:31 168 33.3
2020-Jul-05 19:15 164 33.3
2020-Jul-05 19:00 164 33.3
2020-Jul-05 18:45 169 33.3
2020-Jul-05 18:30 170 33.3
2020-Jul-05 18:15 172 33.3
2020-Jul-05 18:00 179 33.3
2020-Jul-05 17:45 180 33.3
2020-Jul-05 17:32 181 33.3
2020-Jul-05 17:16 183 33.3
2020-Jul-05 17:01 184 33.3
2020-Jul-05 16:46 188 33.3
2020-Jul-05 16:31 192 33.3
2020-Jul-05 16:17 194 33.3
2020-Jul-05 16:00 196 33.3
2020-Jul-05 15:45 201 33.3
2020-Jul-05 15:17 209 33.3
2020-Jul-05 15:01 209 32.8
2020-Jul-05 14:46 210 32.2
2020-Jul-05 14:30 244 31.1
2020-Jul-05 14:15 278 30.0
2020-Jul-05 14:00 279 29.4
2020-Jul-05 13:45 286 29.4
2020-Jul-05 13:32 275 28.9
2020-Jul-05 13:16 271 28.3
2020-Jul-05 13:01 272 27.8
2020-Jul-05 12:46 300 27.2
2020-Jul-05 12:31 277 26.7
2020-Jul-05 12:16 279 26.1
2020-Jul-05 12:00 276 25.6
2020-Jul-05 11:46 276 24.4
2020-Jul-05 11:15 270 23.3
2020-Jul-05 11:00 270 23.3
2020-Jul-05 10:45 270 23.3
2020-Jul-05 10:31 270 23.3
2020-Jul-05 10:15 270 23.3
2020-Jul-05 10:00 270 23.3
2020-Jul-05 09:45 266 23.3
2020-Jul-05 09:30 265 23.3
2020-Jul-05 09:16 265 23.3
2020-Jul-05 09:01 265 23.3
2020-Jul-05 08:45 262 23.9
2020-Jul-05 08:30 262 23.9
2020-Jul-05 08:15 262 24.4
2020-Jul-05 08:00 262 25.0
2020-Jul-05 07:45 262 25.0
2020-Jul-05 07:30 262 25.0
2020-Jul-05 07:02 263 25.6
2020-Jul-05 06:46 263 26.1
2020-Jul-05 06:31 263 26.7
2020-Jul-05 06:16 263 26.7
2020-Jul-05 06:01 294 27.2
2020-Jul-05 05:47 294 27.2
2020-Jul-05 05:31 259 27.2
2020-Jul-05 05:16 261 27.2
2020-Jul-05 05:01 263 27.2
2020-Jul-05 04:48 318 27.2
2020-Jul-05 04:30 153 27.2
2020-Jul-05 04:15 236 27.2
2020-Jul-05 04:00 223 27.2
2020-Jul-05 03:45 289 27.2
2020-Jul-05 03:30 288 27.8
2020-Jul-05 03:15 286 27.8
2020-Jul-05 03:00 243 27.8
2020-Jul-05 02:45 248 27.8
2020-Jul-05 02:31 252 27.8
2020-Jul-05 02:16 148 27.8
2020-Jul-05 02:00 149 27.8
2020-Jul-05 01:45 147 27.8
2020-Jul-05 01:00 055 28.3
2020-Jul-05 00:45 108 28.3
2020-Jul-05 00:16 258 28.9
2020-Jul-05 00:00 166 29.4
2020-Jul-04 23:47 169 30.0
2020-Jul-04 23:31 167 30.6
2020-Jul-04 23:15 205 30.6
2020-Jul-04 23:00 148 31.1
2020-Jul-04 22:45 144 31.1
2020-Jul-04 22:30 152 31.7
2020-Jul-04 22:15 158 32.2
2020-Jul-04 22:00 154 32.2
2020-Jul-04 21:46 128 32.8
2020-Jul-04 21:32 149 32.8
2020-Jul-04 21:15 148 32.8
2020-Jul-04 21:01 151 32.2
2020-Jul-04 20:45 161 32.2
2020-Jul-04 20:31 144 32.8
2020-Jul-04 20:16 161 32.8
2020-Jul-04 20:01 163 32.8
2020-Jul-04 19:47 156 33.3
2020-Jul-04 19:31 158 32.8
2020-Jul-04 19:16 148 32.8
2020-Jul-04 19:01 138 32.8
2020-Jul-04 18:46 168 33.3
2020-Jul-04 18:32 176 33.3
2020-Jul-04 18:16 149 33.3
2020-Jul-04 18:01 182 33.3
2020-Jul-04 17:46 158 33.3
2020-Jul-04 17:32 250 33.3
2020-Jul-04 17:16 202 33.9
2020-Jul-04 17:01 182 34.4
2020-Jul-04 16:45 176 34.4
2020-Jul-04 16:31 171 34.4
2020-Jul-04 16:16 163 34.4
2020-Jul-04 16:00 166 34.4
2020-Jul-04 15:31 286 32.2
2020-Jul-04 15:16 338 32.2
2020-Jul-04 15:00 305 31.7
2020-Jul-04 14:45 296 31.1
2020-Jul-04 14:30 331 31.1
2020-Jul-04 14:15 323 31.1
2020-Jul-04 14:00 307 30.6
2020-Jul-04 13:45 282 30.0
2020-Jul-04 13:33 329 29.4
2020-Jul-04 13:16 342 28.9
2020-Jul-04 13:01 315 28.3
2020-Jul-04 12:46 323 27.8
2020-Jul-04 12:30 302 27.2
2020-Jul-04 12:16 321 26.7
2020-Jul-04 12:00 325 25.6
2020-Jul-04 11:46 327 25.0
2020-Jul-04 11:30 327 24.4
2020-Jul-04 11:15 332 23.9
2020-Jul-04 11:02 333 23.3
2020-Jul-04 10:45 335 23.3
2020-Jul-04 10:30 333 22.8
2020-Jul-04 10:15 327 22.8
2020-Jul-04 10:00 325 22.8
2020-Jul-04 09:46 331 22.8
2020-Jul-04 09:30 327 22.8
2020-Jul-04 09:15 325 23.3
2020-Jul-04 09:00 306 23.3
2020-Jul-04 08:45 308 23.3
2020-Jul-04 08:30 309 23.9
2020-Jul-04 08:15 263 23.9
2020-Jul-04 08:00 261 23.9
2020-Jul-04 07:45 277 24.4
2020-Jul-04 07:30 259 24.4
2020-Jul-04 07:15 275 24.4
2020-Jul-04 07:00 261 24.4
2020-Jul-04 06:45 265 25.0
2020-Jul-04 06:30 268 25.0
2020-Jul-04 06:15 281 25.0
2020-Jul-04 06:01 277 24.4
2020-Jul-04 05:45 269 24.4
2020-Jul-04 05:30 254 25.0
2020-Jul-04 05:15 254 25.0
2020-Jul-04 05:01 254 25.6
2020-Jul-04 04:47 254 26.1
2020-Jul-04 04:32 254 26.7
2020-Jul-04 04:17 254 26.7
2020-Jul-04 04:01 262 26.7